Wetterdaten Sommer 2002

Datum T max T min Regen
05.06.2002 14.9 °C 14.8 °C 6.5 mm
06.06.2002 22.5 °C 13.1 °C 0.7 mm
07.06.2002 19 °C 14 °C 4.3 mm
08.06.2002 28.5 °C 11 °C 0 mm
09.06.2002 24.3 °C 10.8 °C 0 mm
12.06.2002 19.6 °C 17.9 °C 7.2 mm
13.06.2002 28.4 °C 14.8 °C 0 mm
14.06.2002 29.2 °C 15.6 °C 0 mm
15.06.2002 33.2 °C 15.8 °C 0 mm
16.06.2002 29.2 °C 18.7 °C 0 mm
17.06.2002 37.8 °C 15.5 °C 0 mm
18.06.2002 38.3 °C 19.8 °C 0 mm
19.06.2002 32.7 °C 19.6 °C 5 mm
20.06.2002 33.5 °C 18.8 °C 0.4 mm
21.06.2002 33.4 °C 18.4 °C 10.1 mm
22.06.2002 29.3 °C 17.4 °C 0.4 mm
23.06.2002 36.6 °C 18.1 °C 0 mm
26.06.2002 20.9 °C 17.5 °C 11.5 mm
27.06.2002 27 °C 13.4 °C 0 mm
28.06.2002 21.9 °C 12.8 °C 0 mm
29.06.2002 21.9 °C 10.6 °C 0 mm
30.06.2002 29.1 °C 8.7 °C 0 mm
04.07.2002 21.2 °C 12.8 °C 7.2 mm
05.07.2002 30.2 °C 9.3 °C 0 mm
06.07.2002 23 °C 14.4 °C 4 mm
07.07.2002 27.3 °C 13.9 °C 0 mm
09.07.2002 36 °C 16.3 °C 1.1 mm
10.07.2002 28.3 °C 12.9 °C 5 mm
11.07.2002 28.3 °C 10.6 °C 0 mm
12.07.2002 30.1 °C 13.4 °C 2.9 mm
14.07.2002 19.5 °C 16.7 °C 1.1 mm
15.07.2002 24 °C 16.6 °C 1.4 mm
16.07.2002 19.2 °C 15.9 °C 52.9 mm
17.07.2002 18.5 °C 14.6 °C 29.2 mm
18.07.2002 19.3 °C 13.3 °C 8.6 mm
19.07.2002 26.7 °C 12 °C 0 mm
20.07.2002 29.1 °C 11 °C 0 mm
21.07.2002 33.9 °C 13 °C 0 mm
24.07.2002 17.2 °C 15.1 °C 9.4 mm
25.07.2002 23 °C 14.5 °C 3.2 mm
26.07.2002 23.7 °C 14.5 °C 0 mm
27.07.2002 28.8 °C 17.4 °C 0 mm
28.07.2002 33.3 °C 13.9 °C 0 mm
02.08.2002 30.3 °C 12.9 °C 0 mm
03.08.2002 27.9 °C 14.5 °C 0.4 mm
04.08.2002 26.7 °C 16 °C 7.2 mm
05.08.2002 23.3 °C 14.2 °C 0.4 mm
07.08.2002 25.2 °C 13.9 °C 7.6 mm
08.08.2002 25.9 °C 14.4 °C 0.4 mm
09.08.2002 26.9 °C 12.9 °C 9.4 mm
10.08.2002 24.4 °C 15.1 °C 7.6 mm
11.08.2002 16.5 °C 14.4 °C 1.8 mm
14.08.2002 21.1 °C 16.6 °C 4.7 mm
15.08.2002 28.4 °C 12.7 °C 0 mm
16.08.2002 29.8 °C 13.5 °C 0 mm
17.08.2002 29.8 °C 14.1 °C 2.9 mm
18.08.2002 26.9 °C 15.4 °C 0 mm
20.08.2002 20 °C 18 °C 4.3 mm
21.08.2002 23.4 °C 14.7 °C 7.2 mm
22.08.2002 25.3 °C 11.9 °C 0 mm
23.08.2002 26.7 °C 12.5 °C 0 mm
24.08.2002 27.4 °C 14.6 °C 0 mm
25.08.2002 26.7 °C 15.3 °C 0 mm
26.08.2002 29.2 °C 15.2 °C 0 mm
27.08.2002 23.2 °C 18.3 °C 15.8 mm
28.08.2002 24.3 °C 16.8 °C 2.9 mm
29.08.2002 26.6 °C 15.9 °C 0 mm
30.08.2002 25.5 °C 17.1 °C 0 mm
31.08.2002 25.5 °C 16.3 °C 0 mm
*) Messwert für diesen Zeitpunkt noch nicht verfügbar
 Hinweis zur Datenqualität
∅ Temperatur

19.9 °C

Abweichung vom Mittel

+1.2 °C

Niederschlag

244.4 mm

Abweichung vom Mittel

110 %

38.3 °C

Lufttemperatur
18.06.2002

1021 hPa

Luftdruck
22.06.2002

25.8 km/h

Windböen
09.08.2002

244.40002 mm

Niederschlag
 

8.7 °C

Lufttemperatur
30.06.2002

*) °C

Bodentemperatur 5cm
01.01.1970

998 hPa

Luftdruck
06.06.2002
*) Messwert für diesen Zeitpunkt noch nicht verfügbar
 Hinweis zur Datenqualität